User: anonymous   Login
Location: Chenango Forks
(42.2242°N, 75.8278°W)
Time: 21:00:34
(UTC-04:00)
Language:

Okean 3 Rocket - Orbit

View from above orbital plane
View from above orbital plane
View from above satellite
View from above satellite

Ground track
Ground track

The orbit data is extracted from the following two-line orbital elements,

1 21398U 91039B   14303.80351458  .00000480  00000-0  61164-4 0  8915
2 21398 082.5260 039.9962 0023073 091.1352 031.4886 14.79263808261908
Epoch (UTC): 30 October 2014 19:17:03
Eccentricity: 0.0023073
inclination: 82.5260°
perigee height: 615 km
apogee height: 648 km
right ascension of ascending node: 39.9962°
argument of perigee: 91.1352°
revolutions per day: 14.79263808
mean anomaly at epoch: 31.4886°
orbit number at epoch: 26190

The dashed part of the orbit path shows where the satellite is in the earth's shadow,  

DLR